DMSP 5D-2 F13 DEB

Satellite information

Favourite Embed

Satellite Type and Status

DEBRISIN ORBIT

Key statistics

Satellite DMSP 5D-2 F13 DEB at a glance.

Uptime

11118

Days in orbit

Revolutions

≈ 14.3

Per day

Orbit

SSO

Sun Synchronous Orbit

Inclination

98.6

Latest

Satellite identification and parameters

Extended collection of information and parameters for DMSP 5D-2 F13 DEB.

Object identification

Identified? True

Debris? True

Object name: DMSP 5D-2 F13 DEB

International designator: 1995-015AA

Object number (NORAD): 40413

Object ID (CCSDS): 40413

Country: UNITED STATES OF AMERICA (US)

Current information (Y/N): Y

RCS size: SMALL

Orbital parameters

Period: 100.611 minutes

Inclination: 98.6457 deg

SMA: 7165.696 km

Apoapsis: 797.824 km

Periapsis: 777.297 km

RAAN: 267.1515 deg

Eccentricy: 0.00143228

Argument of periapsis: 68.0612 deg

Mean anomaly: 292.2092 deg

Mean motion: 14.31249072 rev/day

Mean motion (dot): 0.00003114 rev/day2

B* drag term: 0.0011928532 1/REarth

Two-line elements (TLE)

Creation date: Aug. 30, 2025, 3:38 a.m.

Reference frame: TEME

Reference center: EARTH

Epoch: Aug. 29, 2025, 7:20 p.m. UTC

TLE line 0: 0 DMSP 5D-2 F13 DEB

TLE line 1: 1 40413U 95015AA 25241.80558282 .00003114 00000-0 11929-2 0 9997

TLE line 2: 2 40413 98.6457 267.1515 0014323 68.0612 292.2092 14.31249072545649

Live tracking on map

Real-time ground track for satellite DMSP 5D-2 F13 DEB.

In-orbit conjunctions

A list of the most updated potential collisions computed for object DMSP 5D-2 F13 DEB.

Target Orbit TCA Probability of collision Miss distance Type
SL-8 R/B LEO 2025-07-19 22:53:02 0.0007439299 79.0 (m) ROCKET BODY
MINOTAUR R/B SSO 2025-01-12 21:11:37 0.0001363397 425.0 (m) ROCKET BODY
DMSP 5D-2 F13 DEB SSO 2024-11-08 15:07:57 0.0001034068 767.0 (m) DEBRIS

Associated space launch

Military meteorological satellite

DMSP 5D-2 F13 DEB was lifted into orbit during the mission ‘Atlas E | DMSP-5D2 F13’, on board a Atlas E space rocket.

The launch took place on March 24, 1995, 2:05 p.m. from Space Launch Complex 3W.

For more information about the launch, click the button.

Launch to space Atlas E | DMSP-5D2 F13
Atlas E | DMSP-5D2 F13

Agency: N/A

Status: Launch Successful

Launch date: March 24, 1995, 2:05 p.m. UTC

Rocket: Atlas E

Launch pad: Space Launch Complex 3W

Location: Vandenberg SFB, CA, USA

...

Latest news about this satellite

There are no fresh news available about this satellite. Check back as we update our databases every day.


Newsletter sign-up

Weekly statistics, charts and insights to help you stay on top of the space industry.